Weather in Abovyan

Armenia     40°16′46″N   44°37′47″E
temp.,
°C
wind,
m/s
gust,
m/s
humid.,
%
clouds,
%
prec.,
mm/h
press.,
hPa
HPBL,
m
30 june, thu
thu3001:00+15ene65560 0.0 101264
04:00+14ene44500 0.0 101238
07:00+16ene22553 0.0 101242
10:00+20w32462 0.0 10111017
13:00+23wnw34393 0.3 10092180
16:00+24w34305 0.4 10082572
19:00+21nne33537 0.1 1008480
22:00+15ene66630 0.1 101175
1 july, fri
fri101:00+15ene55600 0.0 101154
04:00+14ene54600 0.0 101153
07:00+16ene33600 0.0 101058
10:00+20w22490 0.1 1009866
13:00+24wnw34400 0.2 10061862
16:00+25w25291 0.4 10042689
19:00+22n325113 0.1 1004447
22:00+15ene77686 0.2 1008112
2 july, sat
sat201:00+13ene66762 0.1 100987
04:00+12ene55832 1.1 100979
07:00+13ene33780 0.6 100979
10:00+17wnw22581 1.2 1009784
13:00+20wnw234729 1.0 10071678
16:00+21nne43481 2.2 10061470
19:00+18nne44564 1.4 1008328
22:00+12ene66782 2.0 101188
3 july, sun
sun301:00+11ene55794 0.1 101277
04:00+10ene45804 0.1 101379
07:00+12ene33753 0.0 1014165
10:00+16wnw225732 0.0 10131169
13:00+18nnw33465 0.1 10111693
16:00+19nne43462 0.1 10101381
19:00+15ne66601 0.0 1012399
22:00+10ene78764 0.0 1016155
4 july, mon
mon401:00+10ene567320 0.0 1016105
04:00+10ene557224 0.0 101689
07:00+11ene34699 0.0 1017148
10:00+15nw225458 0.0 10161377
13:00+17nw224631 0.0 10141760
16:00+20ne44413 0.0 10121795
19:00+18nne33504 0.0 1012481
22:00+11ene66764 0.0 101694